Theta_e
308 309 309 309 310 311 316 322 327 330 330 329 329 328 328 328 328 327 326 326 325 325 324 324 323 322 322 322 322 322 322 321 321 322 320 320 318 316 316 311 309 309 306
305 305 307 309 308 309 309 311 316 323 328 329 329 329 328 328 328 327 326 326 325 325 325 324 323 323 323 323 323 322 322 321 321 320 317 314 313 310 309 306 307 305 303
301 303 304 304 305 306 306 307 308 312 319 324 328 328 328 328 328 327 327 326 326 325 325 324 324 324 323 323 323 322 321 321 320 319 313 309 307 307 303 301 302 302 300
298 299 300 301 301 302 303 304 306 307 311 317 322 325 326 327 328 327 327 326 326 325 325 325 324 324 323 322 322 321 320 319 317 315 310 305 303 301 301 300 298 299 295
296 297 297 297 298 299 300 301 302 304 305 306 313 320 323 325 326 327 327 326 326 325 325 324 324 324 324 323 321 319 318 315 314 308 304 300 298 296 297 299 297 295 293
294 294 295 295 295 295 296 297 300 302 302 304 305 308 314 321 324 325 327 326 325 324 324 323 324 323 323 323 322 322 321 315 310 307 302 300 299 300 299 298 295 291 291
291 292 292 292 292 292 293 294 295 297 299 300 302 304 306 312 317 320 323 325 322 323 323 322 322 322 322 322 321 320 319 318 316 314 305 304 302 304 303 296 294 292 293
288 289 289 290 289 288 290 292 293 294 296 297 299 300 303 306 311 315 317 320 321 321 321 322 322 322 321 319 317 315 314 312 310 311 310 310 309 307 304 304 299 293 292
286 286 287 285 283 284 287 289 291 292 293 295 297 299 298 300 305 310 314 315 317 317 319 319 319 318 319 318 314 309 307 305 304 305 304 304 304 303 302 299 292 290 285
283 284 281 280 281 282 285 288 289 290 291 292 293 295 297 298 298 303 307 309 311 312 314 313 314 315 316 317 313 307 300 300 300 299 298 298 298 298 298 297 295 289 285
279 277 277 277 278 280 285 287 288 289 290 291 292 294 296 297 297 300 302 304 306 306 308 310 312 311 311 310 309 307 303 304 297 297 296 295 294 293 292 292 292 294 289
274 273 273 274 277 281 282 282 285 288 289 291 292 293 295 295 295 296 298 302 305 305 305 307 309 310 308 307 303 303 301 300 295 293 291 290 290 290 290 290 289 288 287
271 271 271 272 273 275 278 282 285 288 289 290 291 293 294 295 295 295 296 298 301 301 303 305 307 307 306 301 299 300 296 295 291 289 289 289 289 290 289 287 286 285 285
269 269 270 271 272 273 274 276 278 281 285 289 290 291 293 294 294 295 295 295 297 298 298 299 301 302 300 297 294 294 293 293 291 290 289 288 288 287 286 285 284 284 284
267 268 269 270 270 271 272 274 276 279 283 286 289 290 291 292 293 294 295 294 294 295 294 295 294 293 293 291 291 291 290 290 289 289 288 286 286 285 284 284 284 283 283
267 268 268 269 270 270 271 272 274 277 281 284 287 290 291 292 292 293 294 294 295 294 292 294 293 292 292 291 291 290 288 288 288 287 287 286 285 285 284 284 283 283 282
267 267 268 269 270 271 272 273 274 276 280 283 287 290 291 292 292 292 293 294 294 294 292 294 293 292 292 291 291 289 288 288 288 287 286 286 285 285 284 283 282 281 281
266 268 269 270 271 272 273 274 276 278 281 283 287 289 291 291 292 292 292 293 293 293 292 293 293 292 292 291 290 289 288 287 286 286 285 285 284 283 283 281 281 280 279
267 268 268 269 270 271 272 273 274 276 278 279 284 289 290 291 291 291 291 293 293 293 292 292 293 292 291 290 289 288 287 286 286 285 284 283 283 282 281 281 280 279 278
266 266 267 268 269 269 270 271 271 272 273 274 275 275 277 279 289 290 291 292 292 292 291 291 292 290 289 289 288 288 286 285 284 283 282 282 281 281 280 279 278 277 277
265 265 265 266 267 267 268 269 269 270 270 270 271 271 275 273 273 276 281 287 289 290 290 290 289 288 288 287 286 284 283 282 282 281 280 279 279 278 278 278 277 276 276
263 263 264 265 265 265 266 267 267 267 268 268 269 269 270 269 269 269 270 271 274 277 282 285 285 285 285 284 282 281 280 279 278 278 278 278 278 278 278 277 276 274 273
261 261 262 263 263 264 264 265 265 265 266 266 267 267 267 268 268 268 268 268 269 272 274 276 278 279 279 279 279 279 279 278 279 280 280 278 277 276 275 274 273 271 271
259 260 260 260 261 261 262 262 263 263 264 264 264 265 265 266 266 266 266 267 267 269 270 271 273 274 276 277 278 278 279 279 280 280 279 277 275 274 273 273 272 271 270
258 258 258 258 258 259 259 260 260 261 261 262 262 263 263 263 264 264 264 265 265 266 267 268 269 270 271 272 274 275 276 277 278 277 276 276 275 274 273 271 270 270 269
257 257 256 256 256 256 257 257 257 258 258 259 259 260 261 261 261 262 262 262 263 264 265 266 267 268 269 270 270 271 272 272 273 273 273 273 272 271 271 270 269 268 268
Wind_Speed
33 30 26 23 20 20 22 27 33 38 38 38 40 40 40 41 42 42 41 40 38 38 37 37 36 35 33 33 32 33 31 28 17 23 20 22 23 21 21 21 18 15 13
35 34 31 28 28 27 25 24 26 30 35 38 39 40 39 40 40 41 41 39 39 36 37 35 36 35 35 35 32 34 33 30 27 21 17 21 20 20 20 19 16 13 11
35 35 35 34 33 30 30 30 27 27 28 31 37 37 37 38 39 40 42 42 42 41 39 37 37 35 34 34 32 30 30 33 32 25 16 18 17 19 18 16 14 12 11
35 33 32 34 35 34 32 30 29 27 27 29 30 34 36 37 38 39 40 41 41 41 40 40 38 37 37 35 34 35 32 29 33 27 16 12 14 14 19 17 14 13 12
35 34 31 34 36 38 37 35 33 31 29 29 30 31 33 35 35 36 38 39 39 38 38 39 42 43 43 41 36 33 33 30 29 23 12 10 11 10 20 16 15 14 12
28 32 36 39 40 36 39 41 38 36 33 31 30 31 33 33 35 36 39 37 38 37 34 38 42 41 42 44 45 45 42 32 29 23 17 11 19 20 19 19 17 8 4
26 27 30 33 38 41 41 37 38 38 37 35 34 31 33 37 36 36 35 40 33 35 36 35 37 41 42 44 44 41 40 36 35 34 22 25 22 29 25 23 22 17 10
28 26 28 29 31 37 38 38 39 37 38 37 35 33 29 33 35 36 35 37 40 37 39 40 42 43 41 39 36 34 34 32 32 30 30 30 28 24 27 28 30 22 14
25 29 27 29 36 36 37 35 34 35 35 35 38 38 35 35 32 34 33 35 39 41 41 41 40 39 38 37 35 33 29 27 25 24 23 20 20 22 26 26 25 21 5
31 31 35 35 36 36 35 35 36 35 36 34 34 32 36 39 35 32 32 33 37 37 39 37 34 36 34 34 37 36 29 30 26 20 18 17 19 21 26 29 32 23 8
35 37 37 34 36 35 33 32 35 36 35 33 32 31 31 31 34 31 33 33 34 29 33 36 36 33 33 33 37 39 37 35 29 26 23 23 23 25 26 26 23 28 20
40 38 37 34 31 31 36 38 34 32 32 33 31 32 29 27 29 31 32 35 35 35 33 36 35 34 33 32 35 37 35 31 31 29 26 25 27 28 27 23 20 19 18
40 39 37 37 34 30 31 32 32 29 29 30 28 28 30 27 28 30 30 34 37 39 36 35 34 33 33 32 36 36 34 33 31 25 25 25 29 33 29 22 21 18 15
37 38 37 37 36 32 31 30 31 29 28 29 28 27 29 29 25 27 28 29 32 36 35 32 31 31 33 33 34 33 36 37 35 30 28 27 30 30 29 29 24 24 22
34 34 35 33 34 36 32 31 33 34 31 33 34 32 30 32 28 25 27 26 27 31 27 27 24 22 24 24 27 29 31 31 29 28 27 28 28 27 26 30 25 23 18
35 33 33 34 33 33 34 39 31 35 36 39 43 41 42 42 42 40 35 32 32 31 24 23 22 24 25 26 26 26 28 30 30 30 29 31 30 29 25 25 24 24 20
34 35 34 33 32 33 33 32 33 40 33 35 37 38 39 44 43 43 41 35 34 32 28 26 24 26 27 29 29 29 29 29 29 30 30 29 28 28 26 23 22 22 18
35 33 31 32 33 33 33 33 33 31 29 35 31 30 31 36 38 40 40 35 30 34 32 28 25 27 28 29 29 29 28 27 29 28 28 31 31 30 27 24 23 21 19
31 30 33 33 32 33 31 30 30 29 28 31 35 28 27 30 33 35 37 33 27 25 28 29 27 27 28 29 31 31 33 34 34 31 29 30 30 30 26 24 22 21 22
31 32 32 31 31 32 31 30 30 29 27 27 26 29 36 36 23 22 23 26 25 26 25 27 26 25 27 29 30 31 30 31 31 31 29 28 28 28 25 24 25 24 21
31 30 30 28 30 31 31 30 29 29 28 28 28 31 36 26 25 25 22 15 17 22 19 19 17 18 20 22 22 23 24 24 26 25 26 26 28 25 26 25 25 24 23
28 28 27 26 26 29 30 29 29 29 29 30 32 34 38 32 30 29 29 28 19 11 4 15 17 19 23 26 28 27 25 26 27 29 29 30 29 28 27 26 25 23 24
26 27 26 26 25 27 28 29 30 31 30 30 32 33 34 33 32 32 32 32 30 23 15 4 11 15 17 20 22 26 29 30 32 33 33 32 30 28 28 27 26 24 23
25 25 26 26 27 27 27 28 29 30 30 30 31 31 32 32 32 33 34 33 35 32 26 20 14 9 8 11 13 16 20 22 25 29 32 32 30 29 27 26 27 26 24
25 25 25 25 25 26 27 27 27 28 28 29 29 30 31 31 31 33 33 35 33 34 31 26 22 17 13 11 9 8 10 15 19 23 25 26 27 27 27 26 26 25 24
25 25 24 24 24 25 25 25 26 27 28 29 29 29 29 30 30 30 32 33 33 32 31 28 24 21 18 13 8 4 2 6 11 15 18 20 23 25 25 25 25 24 23
Wind_Direction
7 359 341 337 331 306 286 275 264 256 249 246 243 242 240 239 239 237 236 237 237 237 239 240 241 238 236 233 233 234 235 233 246 256 244 229 227 231 226 230 230 245 252
2 359 356 352 344 338 330 310 292 276 264 255 251 245 240 239 239 235 234 233 234 235 236 235 237 239 239 236 231 231 233 233 238 251 233 214 213 217 217 223 229 235 243
3 2 357 352 350 345 337 332 324 307 290 272 263 251 246 243 241 238 235 234 234 235 235 233 234 236 235 234 233 232 232 236 233 236 220 210 206 208 214 223 217 219 226
357 355 354 352 346 344 343 336 328 322 312 295 277 265 259 252 245 242 242 238 236 236 233 233 234 233 234 237 236 236 232 230 229 223 214 194 201 205 210 206 209 207 212
351 349 345 341 343 342 341 341 333 323 315 308 294 282 271 263 257 250 245 242 238 235 234 234 236 238 240 238 233 233 232 227 228 219 199 184 181 170 199 199 207 190 200
344 341 341 340 339 337 336 335 333 332 323 315 306 291 281 270 261 259 250 244 238 234 232 235 240 242 244 245 245 245 246 227 221 214 204 192 198 202 198 191 180 168 206
335 334 334 334 334 334 331 327 324 326 325 319 310 303 287 278 273 269 262 251 240 237 235 236 240 245 249 248 248 244 246 246 245 242 213 212 203 213 203 192 189 191 183
332 332 331 332 330 326 324 322 320 319 317 316 308 302 292 285 276 272 271 264 257 249 245 244 248 250 248 243 240 237 234 234 232 235 238 238 231 227 216 211 203 191 175
331 330 331 330 324 322 318 314 312 311 308 305 306 301 294 286 282 276 272 268 261 256 253 248 248 247 248 246 232 223 221 217 221 224 229 230 222 217 210 196 179 170 162
332 326 322 321 319 316 313 310 310 307 302 302 296 292 291 288 283 273 273 268 261 258 259 253 248 249 246 239 228 218 200 206 204 197 196 193 198 203 202 202 195 175 144
323 321 320 319 315 311 309 309 310 305 303 301 296 293 288 284 283 276 270 264 254 253 251 252 248 243 243 240 231 222 214 216 201 196 186 184 185 190 193 200 208 205 183
322 320 318 318 315 310 306 304 304 301 300 299 298 295 291 289 285 280 273 268 261 249 244 249 249 245 239 234 225 223 217 211 194 183 176 177 180 188 194 197 198 203 207
322 319 318 315 313 310 306 306 304 302 297 295 295 294 295 294 291 291 284 272 266 249 249 251 252 245 235 225 218 217 206 194 181 177 180 184 187 192 191 191 189 189 186
317 317 317 315 315 313 307 303 299 296 294 291 291 290 293 293 291 287 285 279 266 251 243 246 248 242 230 213 201 199 197 196 187 186 184 183 186 184 182 184 179 178 171
318 316 316 315 314 312 308 303 298 290 285 285 284 286 289 290 289 287 282 267 259 246 233 233 222 204 196 191 193 193 193 193 189 185 179 172 175 179 179 183 178 175 174
319 321 318 315 314 311 309 308 302 295 293 286 281 278 278 276 279 279 275 264 261 248 220 225 215 204 197 193 196 195 194 191 191 182 179 177 173 177 180 178 180 183 177
321 318 318 316 315 313 310 308 308 311 303 299 290 282 276 272 278 279 274 265 250 235 225 236 222 208 203 198 197 195 195 196 190 185 179 177 173 173 173 176 177 179 181
326 326 328 325 321 320 316 311 305 301 308 313 304 290 283 280 281 282 282 266 245 232 227 234 226 215 207 202 196 193 191 186 184 183 178 174 174 170 170 177 182 179 174
332 334 337 335 332 329 330 327 326 323 322 321 330 310 296 284 281 280 284 265 243 237 228 232 231 220 210 202 199 195 190 185 184 180 180 173 169 168 172 176 177 177 171
337 341 345 342 341 341 342 341 340 340 339 339 341 341 340 336 298 284 280 266 246 241 234 232 234 221 212 205 198 195 190 184 176 172 170 170 169 168 170 168 172 172 180
338 338 343 347 350 346 346 347 347 348 349 350 349 349 353 356 353 353 342 309 277 249 242 227 224 214 210 205 194 181 178 173 168 163 161 161 162 160 170 173 173 178 182
337 339 343 348 349 350 349 350 351 354 356 356 355 357 4 9 6 3 358 359 6 16 146 187 183 185 188 182 174 167 162 158 160 160 161 167 170 173 178 179 180 182 180
341 341 344 349 353 352 352 355 356 356 356 358 359 1 5 6 6 8 6 5 13 16 18 75 158 165 172 173 173 174 168 167 172 177 174 177 178 180 181 178 180 178 177
348 348 350 353 354 353 352 351 353 353 355 359 1 2 3 5 6 6 6 7 16 24 31 38 49 75 127 152 165 174 177 174 176 181 186 182 180 184 183 183 185 186 180
356 353 354 352 352 351 350 350 351 352 353 355 356 0 1 2 5 6 6 7 8 15 21 25 28 36 51 68 88 119 156 178 185 188 190 191 189 188 190 189 189 185 182
3 1 356 353 352 351 348 346 347 350 351 352 353 356 357 360 0 2 3 4 5 7 10 12 14 17 21 24 29 32 135 185 194 199 198 196 191 191 193 193 191 184 184